Skip Page Navigation
NASA JPL Caltech
NASA Logo - Jet Propulsion Laboratory + View the NASA Portal
+ Center for Near-Earth Object Studies
JPL Home Earth Solar System Stars & Galaxies Technology
JPL Solar System Dynamics
BODIES ORBITS EPHEMERIDES TOOLS PHYSICAL DATA DISCOVERY FAQ SITE MAP
IMPORTANT: The SSD Announcement email list is now available. Major changes are coming in the near future, including possible hostname and/or URL changes. To be notified of such changes, subscribe to this email list.

Please visit this page for more details.


JPL Small-Body Database Browser
Search: [ help ]  
18138 (2000 OP35)
Classification: Main-belt Asteroid          SPK-ID: 2018138
Ephemeris | Orbit Diagram | Orbital Elements | Mission Design | Physical Parameters | Discovery Circumstances ]

[ show orbit diagram ]
Orbital Elements at Epoch 2458600.5 (2019-Apr-27.0) TDB
Reference: JPL 27 (heliocentric ecliptic J2000)
 Element Value Uncertainty (1-sigma)   Units 
e .149983152839776 4.7966e-08  
a 2.176331619604386 7.5703e-09 au
q 1.849918541671224 1.0748e-07 au
i 4.333158675915834 4.6666e-06 deg
node 24.09944506681427 5.0901e-05 deg
peri 349.6600376926932 5.2441e-05 deg
M 273.7159029429857 1.2389e-05 deg
tp 2458881.569869890636
(2020-Feb-02.06986989)
4.0745e-05 TDB
period 1172.697595638841
3.21
6.1188e-06
1.675e-08
d
yr
n .306984512749756 1.6018e-09 deg/d
Q 2.502744697537548 8.7057e-09 au
  Orbit Determination Parameters
   # obs. used (total)      1386  
   data-arc span      8599 days (23.54 yr)  
   first obs. used      1996-04-17  
   last obs. used      2019-11-02  
   planetary ephem.      DE431  
   SB-pert. ephem.      SB431-N16  
   condition code      0  
   norm. resid. RMS      .52004  
   source      ORB  
   producer      Otto Matic  
   solution date      2019-Dec-03 23:48:49  

Additional Information
 Earth MOID = .849997 au 
 Jupiter MOID = 2.95719 au 
 T_jup = 3.666 
[ show covariance matrix ]

Ephemeris | Orbit Diagram | Orbital Elements | Mission Design | Physical Parameters | Discovery Circumstances ]

Physical Parameter Table
Parameter Symbol Value Units Sigma Reference Notes
absolute magnitude H 15.0   n/a MPO435867  

18138 (2000 OP35)          Discovered 2000-Jul-31 by LINEAR at Socorro
Reference: 20001013/Numbers.arcLast Updated: 2004-04-19

Alternate Designations
 2000 OP35 = 1999 GZ25 
Ephemeris | Orbit Diagram | Orbital Elements | Mission Design | Physical Parameters | Discovery Circumstances ]
ABOUT SSD CREDITS/AWARDS PRIVACY/COPYRIGHT GLOSSARY LINKS
FirstGov 2020-Jan-28 04:21 UT
(server date/time)  
NASA Home Page
Site Manager:   Ryan S. Park
Webmaster  Alan B. Chamberlin